#timestamp,LO_Frequency,Hit,StdDev 
1576144815.4,286047000.6,N
1576144835.2,286047000.5,N
1576144855.0,286047000.8,N
1576144855.9,286047000.8,N
1576144875.8,286047000.8,N
1576144895.6,286046998.2,N
1576144915.5,286046998.1,N
1576144935.3,286046998.4,N
1576144955.1,286046998.8,N
1576144975.9,286046997.4,N
1576144995.7,286046999.2,N
1576145015.5,286046996.5,N
1576145035.4,286046997.4,N
1576145055.2,286046999.5,N
1576145075.1,286046999.3,N
1576145076.0,286046999.3,N
1576145095.8,286046998.5,N
1576145115.6,286046998.4,N
1576145135.5,286047000.8,N
1576145155.3,286047000.3,N
1576145175.1,286047000.9,N
1576145195.9,286047000.9,N
1576145215.7,286047000.5,N
1576145235.6,286046998.6,N
1576145255.4,286046999.9,N
1576145275.2,286047000.9,N
1576145295.1,286046999.9,N
1576145296.0,286046999.9,N
1576145315.8,286047000.3,N
1576145335.7,286047002.1,N
1576145355.5,286047004.0,Y
1576145375.3,286047001.4,P
1576145395.2,286047001.4,N
1576145415.0,286047001.4,N
1576145415.9,286047001.4,N
1576145435.7,286047001.9,N
1576145455.6,286047002.8,Y
1576145475.4,286046999.0,P
1576145495.3,286047000.5,N
1576145515.1,286046999.9,N
1576145535.8,286047000.6,N
1576145555.7,286047000.8,N
1576145575.5,286046999.0,N
1576145595.3,286046999.4,N
1576145615.2,286046998.4,N
1576145635.0,286046998.9,N
1576145635.9,286046998.9,N
1576145655.8,286046998.3,N
1576145675.6,286046999.4,N
1576145695.4,286046999.6,N
1576145715.3,286046998.8,N
1576145735.1,286046999.0,N
1576145755.9,286046998.7,N
1576145775.7,286046996.8,Y
1576145795.5,286046999.6,P
1576145815.4,286047000.7,P
1576145835.2,286046998.8,N
1576145855.0,286046998.1,N
1576145855.9,286046998.1,N
1576145875.8,286047000.6,N
1576145895.6,286046998.2,N
1576145915.5,286047000.9,N
1576145935.3,286047000.1,N
1576145955.1,286047002.8,N
1576145975.9,286047000.1,N
1576145995.7,286047001.4,N
1576146015.5,286047001.7,N
1576146035.4,286047002.1,N
1576146055.2,286047001.3,N
1576146075.1,286047004.4,Y
1576146076.0,286047004.4,P
1576146095.8,286047001.9,N
1576146115.6,286047002.1,N
1576146135.5,286047000.5,N
1576146155.3,286047000.4,N
1576146175.1,286046999.7,N
1576146195.9,286047000.0,N
1576146215.7,286047000.9,N
1576146235.6,286047000.1,N
1576146255.4,286047002.7,N
1576146275.2,286046999.7,N
1576146295.1,286047000.2,N
1576146296.0,286047000.2,N
1576146315.8,286047002.0,N
1576146335.6,286047001.9,N
1576146355.5,286047002.1,N
1576146375.3,286047002.2,N
1576146395.2,286047001.3,N
1576146415.9,286047004.4,Y
1576146435.7,286047001.8,P
1576146455.6,286047001.8,P
1576146475.4,286047003.8,P
1576146495.3,286047004.2,Y
1576146515.1,286047000.5,P
1576146516.0,286047000.5,N
1576146535.8,286047001.1,N
1576146555.7,286047000.2,N
1576146575.5,286047002.6,Y
1576146595.3,286047001.0,P
1576146615.2,286046998.8,P
1576146635.0,286046999.3,N
1576146635.9,286046999.3,N
1576146655.8,286046997.4,N
1576146675.6,286046996.9,N
1576146695.4,286046997.8,N
1576146715.3,286046996.5,N
1576146735.1,286046998.3,N
1576146755.9,286047001.2,N
1576146775.7,286046999.3,N
1576146795.5,286046998.9,N
1576146815.4,286046999.5,N
1576146835.2,286046999.3,N
1576146855.0,286047001.0,N
1576146855.9,286047001.0,N
1576146875.8,286047002.5,N
1576146895.6,286046999.9,N
1576146915.5,286047000.5,N
1576146935.3,286047000.5,N
1576146955.1,286047001.1,N
1576146975.9,286047001.1,N
1576146995.7,286046998.7,N
1576147015.5,286046999.1,N
1576147035.4,286046997.1,N
1576147055.2,286046996.5,N
1576147075.1,286046996.9,N
1576147076.0,286046996.9,N
1576147095.8,286046996.8,N
1576147115.6,286046996.5,N
1576147135.5,286046998.9,N
1576147155.3,286046998.7,N
1576147175.1,286046998.5,N
1576147195.9,286046996.6,N
1576147215.7,286046996.9,N
1576147235.6,286046996.9,N
1576147255.4,286046996.5,N
1576147275.2,286046997.7,N
1576147295.1,286046997.6,N
1576147296.0,286046997.6,N
1576147315.8,286046995.4,N
1576147335.7,286046995.3,N
1576147355.5,286046997.9,N
1576147375.3,286046996.2,N
1576147395.2,286046994.1,Y
1576147415.0,286046995.4,P
1576147415.9,286046995.4,P
1576147435.8,286046997.6,N
1576147455.6,286046997.0,N
1576147475.4,286046999.0,N
1576147495.3,286046999.6,N
1576147515.1,286047000.4,N
1576147535.8,286047001.1,N
1576147555.7,286047000.6,N
1576147575.5,286046998.6,N
1576147595.4,286046999.5,N
1576147615.2,286046999.4,N
1576147635.0,286046996.5,N
1576147635.9,286046996.5,N
1576147655.8,286046999.2,N
1576147675.6,286046999.0,N
1576147695.4,286046998.7,N
1576147715.3,286046998.1,N
1576147735.1,286046998.8,N
1576147755.9,286047000.6,N
1576147775.7,286046999.3,N
1576147795.5,286046998.6,N
1576147815.4,286047000.7,N
1576147835.2,286047000.0,N
1576147855.1,286047000.3,N
1576147856.0,286047000.3,N
1576147875.8,286047000.8,N
1576147895.6,286046998.5,N
1576147915.5,286046998.7,N
1576147935.3,286047000.6,N
1576147955.1,286047000.3,N
1576147975.9,286046998.3,N
1576147995.7,286046996.6,N
1576148015.6,286046999.2,N
1576148035.4,286046999.0,N
1576148055.2,286046996.6,N
1576148075.1,286046996.8,N
1576148076.0,286046996.8,N
1576148095.8,286046997.2,N
1576148115.6,286046999.3,N
1576148135.5,286046996.6,N
1576148155.3,286046999.5,N
1576148175.2,286046997.1,N
1576148195.9,286046998.2,N
1576148215.7,286046998.1,N
1576148235.6,286046998.9,N
1576148255.4,286046998.2,N
1576148275.2,286046998.3,N
1576148295.1,286046998.5,N
1576148296.0,286046998.5,N
1576148315.8,286047000.7,N
1576148365.7,286046998.5,E
1576148375.6,286046998.1,N
1576148395.5,286047000.5,P
